FW9915 Weather Reports


Display with metric or nautical units.
time (UTC)temp
F
wind
direction
speed
MPH
gust
MPH
rain 1hr
in
rain 24hr
in
rain mn
in
humidity
%
barometer
mb
20260901190520 69 180 1.0 2.0 0.00 0.00 0.00 93 1017.8
20260901185520 69 0.0 0.0 0.00 0.00 0.00 92 1017.8
20260901184520 69 0.0 0.0 0.00 0.00 0.00 92 1017.8
20260901183520 70 180 0.0 2.0 0.00 0.00 0.00 92 1017.8
20260901182520 70 0.0 0.0 0.00 0.00 0.00 91 1017.8
20260901181532 70 0.0 0.0 0.00 0.00 0.00 91 1017.7
20260901180532 70 0.0 0.0 0.00 0.00 0.00 90 1017.6
20260901175540 70 0.0 0.0 0.00 0.00 0.00 90 1017.5
20260901174520 70 180 0.0 2.0 0.00 0.00 0.00 89 1017.4
20260901173604 70 180 1.0 2.0 0.00 0.00 0.00 88 1017.2
20260901172532 70 180 1.0 2.0 0.00 0.00 0.00 88 1017.1
20260901171540 70 203 1.0 2.0 0.00 0.00 0.00 89 1017.1
20260901170520 71 199 2.0 4.0 0.00 0.00 0.00 89 1016.9
20260901165520 71 135 2.0 4.0 0.00 0.00 0.00 90 1016.9
20260901164544 71 135 1.0 2.0 0.00 0.00 0.00 89 1016.8
20260901163523 71 135 2.0 4.0 0.00 0.00 0.00 89 1016.8
20260901162540 72 133 2.0 4.0 0.00 0.00 0.00 88 1016.8
20260901161544 72 120 3.0 7.0 0.00 0.00 0.00 87 1016.8
20260901160520 72 113 2.0 4.0 0.00 0.00 0.00 87 1016.8
20260901155520 72 118 2.0 4.0 0.00 0.00 0.00 86 1016.8
20260901154532 73 118 2.0 4.0 0.00 0.00 0.00 85 1016.8
20260901153520 73 138 3.0 7.0 0.00 0.00 0.00 85 1016.8
20260901152604 73 127 3.0 7.0 0.00 0.00 0.00 85 1016.8
20260901151520 73 131 4.0 7.0 0.00 0.00 0.00 83 1016.8
20260901150520 74 139 4.0 9.0 0.00 0.00 0.00 83 1016.7
20260901145521 74 137 3.0 7.0 0.00 0.00 0.00 82 1016.7
20260901144520 75 120 3.0 7.0 0.00 0.00 0.00 82 1016.7
20260901143520 75 136 5.0 9.0 0.00 0.00 0.00 81 1016.7
20260901142520 75 149 4.0 7.0 0.00 0.00 0.00 81 1016.7
20260901141545 76 161 2.0 7.0 0.00 0.00 0.00 79 1016.7
20260901140520 75 131 4.0 7.0 0.00 0.00 0.00 81 1016.7
20260901135520 75 134 4.0 7.0 0.00 0.00 0.00 81 1016.7
20260901134540 74 127 4.0 9.0 0.00 0.00 0.00 82 1016.7
20260901133521 74 122 5.0 11.0 0.00 0.00 0.00 81 1016.8
20260901132521 74 128 6.0 11.0 0.00 0.00 0.00 82 1016.9
20260901131540 75 122 5.0 9.0 0.00 0.00 0.00 80 1016.9
20260901130520 76 161 4.0 7.0 0.00 0.00 0.00 78 1016.9
20260901125520 75 119 4.0 9.0 0.00 0.00 0.00 80 1016.9
20260901124520 74 142 4.0 7.0 0.00 0.00 0.00 80 1017.0
20260901123532 74 114 5.0 7.0 0.00 0.00 0.00 81 1017.0
20260901122520 74 113 4.0 9.0 0.00 0.00 0.00 80 1017.1
20260901121520 75 123 4.0 9.0 0.00 0.00 0.00 80 1017.1
20260901120540 75 172 5.0 9.0 0.00 0.00 0.00 79 1017.2
20260901115540 75 133 4.0 9.0 0.00 0.00 0.00 79 1017.2
20260901114520 74 122 5.0 9.0 0.00 0.00 0.00 80 1017.1
20260901113532 74 135 5.0 9.0 0.00 0.00 0.00 80 1017.3
20260901112520 74 121 6.0 11.0 0.00 0.00 0.00 82 1017.3
20260901111520 74 138 5.0 9.0 0.00 0.00 0.00 82 1017.3
20260901110532 74 126 5.0 9.0 0.00 0.00 0.00 83 1017.4
20260901105612 74 152 6.0 9.0 0.00 0.00 0.00 81 1017.4
20260901104532 75 145 4.0 9.0 0.00 0.00 0.00 79 1017.4
20260901103540 74 135 4.0 9.0 0.00 0.00 0.00 81 1017.6
20260901102520 75 155 4.0 9.0 0.00 0.00 0.00 80 1017.7
20260901101520 74 136 5.0 11.0 0.00 0.00 0.00 82 1017.7
20260901100520 75 192 4.0 9.0 0.00 0.00 0.00 79 1017.7
20260901095520 75 168 3.0 7.0 0.00 0.00 0.00 80 1017.7
20260901094520 75 170 4.0 7.0 0.00 0.00 0.00 80 1017.7
20260901093520 75 172 4.0 9.0 0.00 0.00 0.00 80 1017.7
20260901092520 75 133 3.0 7.0 0.00 0.00 0.00 80 1017.6
20260901091520 75 148 3.0 7.0 0.00 0.00 0.00 81 1017.5
20260901090520 74 129 5.0 9.0 0.00 0.00 0.00 82 1017.5
20260901085520 74 158 4.0 7.0 0.00 0.00 0.00 81 1017.5
20260901084520 74 125 4.0 7.0 0.00 0.00 0.00 81 1017.4
20260901083520 74 99 4.0 7.0 0.00 0.00 0.00 82 1017.4
20260901082544 74 119 4.0 9.0 0.00 0.00 0.00 81 1017.3
20260901081520 74 131 5.0 9.0 0.00 0.00 0.00 82 1017.2
20260901080540 74 136 4.0 9.0 0.00 0.00 0.00 81 1017.3
20260901075520 74 136 4.0 9.0 0.00 0.00 0.00 81 1017.4
20260901074540 74 129 5.0 9.0 0.00 0.00 0.00 81 1017.4
20260901073520 74 130 3.0 7.0 0.00 0.00 0.00 80 1017.4
20260901072520 74 115 3.0 9.0 0.00 0.00 0.00 81 1017.2
20260901071520 74 124 4.0 9.0 0.00 0.00 0.00 82 1017.3
20260901070520 74 105 4.0 7.0 0.00 0.00 0.00 80 1017.2
20260901065520 74 138 4.0 7.0 0.00 0.00 0.00 81 1017.2
20260901064520 74 129 3.0 7.0 0.00 0.00 0.00 82 1017.0
20260901063520 74 107 2.0 7.0 0.00 0.00 0.00 84 1016.9
20260901062520 73 153 2.0 4.0 0.00 0.00 0.00 83 1016.9
20260901061532 73 90 3.0 7.0 0.00 0.00 0.00 85 1016.7
20260901060520 72 59 4.0 7.0 0.00 0.00 0.00 85 1016.6
20260901055612 72 68 3.0 4.0 0.00 0.00 0.00 87 1016.6
20260901054540 71 51 3.0 4.0 0.00 0.00 0.00 87 1016.7
20260901053520 70 38 4.0 4.0 0.00 0.00 0.00 88 1016.8
20260901052520 69 30 2.0 4.0 0.00 0.00 0.00 90 1016.7
20260901051520 67 0.0 0.0 0.00 0.00 0.00 93 1016.8
20260901050520 68 0.0 0.0 0.00 0.00 0.00 95 1016.9
20260901045520 66 0.0 0.0 0.00 0.00 0.00 99 1016.8
20260901044521 65 338 0.0 2.0 0.00 0.00 0.00 99 1016.8
20260901043520 63 338 0.0 2.0 0.00 0.00 0.00 99 1016.8
20260901042544 63 338 0.0 0.0 0.00 0.00 0.00 99 1016.7
20260901041532 62 0.0 0.0 0.00 0.00 0.00 99 1016.7
20260901040600 61 0.0 0.0 0.00 0.00 0.00 99 1016.6
20260901035520 60 0.0 0.0 0.00 0.00 0.00 99 1016.6
20260901034540 61 338 1.0 2.0 0.00 0.00 0.00 99 1016.7
20260901033520 60 338 1.0 2.0 0.00 0.00 0.00 99 1016.8
20260901032612 59 0.0 0.0 0.00 0.00 0.00 99 1016.7
20260901031541 59 0.0 0.0 0.00 0.00 0.00 99 1016.5
20260901030520 59 0.0 0.0 0.00 0.00 0.00 99 1016.4
20260901025520 59 0.0 0.0 0.00 0.00 0.00 99 1016.4
20260901024532 59 0.0 0.0 0.00 0.00 0.00 99 1016.5
20260901023520 59 0.0 0.0 0.00 0.00 0.00 99 1016.8
20260901022540 58 0.0 0.0 0.00 0.00 0.00 99 1016.7
20260901021540 58 0.0 0.0 0.00 0.00 0.00 99 1016.7
20260901020520 58 0.0 0.0 0.00 0.00 0.00 99 1016.7
20260901015520 59 0.0 0.0 0.00 0.00 0.00 99 1016.7
20260901014520 60 0.0 0.0 0.00 0.00 0.00 99 1016.7
20260901013520 59 0.0 0.0 0.00 0.00 0.00 99 1016.7
20260901012520 59 0.0 0.0 0.00 0.00 0.00 99 1016.7
20260901011532 60 0.0 0.0 0.00 0.00 0.00 99 1016.8
20260901010520 59 0.0 0.0 0.00 0.00 0.00 99 1016.8
20260901005540 60 0.0 0.0 0.00 0.00 0.00 99 1016.8
20260901004520 60 0.0 0.0 0.00 0.00 0.00 99 1016.9
20260901003532 60 0.0 0.0 0.00 0.00 0.00 99 1016.9
20260901002520 60 0.0 0.0 0.00 0.00 0.00 99 1017.0
20260901001520 59 0.0 0.0 0.00 0.00 0.00 99 1016.9
20260901000532 60 0.0 0.0 0.00 0.00 0.00 99 1017.0
20260831235557 60 0.0 0.0 0.00 0.00 0.00 99 1017.0
20260831234520 60 0.0 0.0 0.00 0.00 0.00 99 1016.9
20260831233520 60 0.0 0.0 0.00 0.00 0.00 99 1016.8
20260831232553 61 0.0 0.0 0.00 0.00 0.00 99 1016.9
20260831231521 60 0.0 0.0 0.00 0.00 0.00 99 1017.0
20260831230532 61 0.0 0.0 0.00 0.00 0.00 99 1017.1
20260831225521 61 0.0 0.0 0.00 0.00 0.00 99 1017.2
20260831224520 61 0.0 0.0 0.00 0.00 0.00 99 1017.3
20260831223541 61 0.0 0.0 0.00 0.00 0.00 99 1017.3
20260831222520 61 0.0 0.0 0.00 0.00 0.00 99 1017.3
20260831221520 61 0.0 0.0 0.00 0.00 0.00 99 1017.4
20260831220520 61 0.0 0.0 0.00 0.00 0.00 99 1017.4
20260831215520 62 0.0 0.0 0.00 0.00 0.00 99 1017.5
20260831214520 62 0.0 0.0 0.00 0.00 0.00 99 1017.6
20260831213532 62 0.0 0.0 0.00 0.00 0.00 99 1017.6
20260831212520 61 0.0 0.0 0.00 0.00 0.00 99 1017.7
20260831211520 62 0.0 0.0 0.00 0.00 0.00 98 1017.7
20260831210520 63 0.0 0.0 0.00 0.00 0.00 98 1017.8
20260831205520 62 0.0 0.0 0.00 0.00 0.00 98 1017.8
20260831204520 63 0.0 0.0 0.00 0.00 0.00 98 1017.8
20260831203520 63 0.0 0.0 0.00 0.00 0.00 97 1017.9
20260831202544 63 0.0 0.0 0.00 0.00 0.00 97 1017.9
20260831201520 64 0.0 0.0 0.00 0.00 0.00 97 1017.8
20260831200520 63 0.0 0.0 0.00 0.00 0.00 96 1017.7
20260831195520 64 0.0 0.0 0.00 0.00 0.00 96 1017.6
20260831194520 64 0.0 0.0 0.00 0.00 0.00 95 1017.6
20260831193520 65 0.0 0.0 0.00 0.00 0.00 95 1017.6
20260831192520 65 0.0 0.0 0.00 0.00 0.00 95 1017.7
20260831191521 66 0.0 0.0 0.00 0.00 0.00 95 1017.6